Location: Izdebnik
(49.8699°N, 19.7619°E)
Time: 13:27:10
(UTC+01:00)

ISS - Pass Details

Date: 29 January 2019
Orbit: 403 x 411 km, 51.6° (Epoch: 23 February)

Event Time Altitude Azimuth Distance (km) Brightness Sun altitude
Rises 18:14:41 0° 263° (W) 2,333 1.9 -16.8°
Reaches altitude 10° 18:16:46 10° 266° (W) 1,475 0.3 -17.2°
Maximum altitude 18:20:04 69° 350° (N) 444 -3.7 -17.7°
Enters shadow 18:20:39 54° 49° (NE) 508 -3.7 -17.8°
